Hlavní strana
METAR-TAF:

METAR-TAF

Letiště :

Rugby, Severní Dakota, Spojené státy americké

zeměpisná šířka: 48-23-25N, zeměpisná délka: 100-01-27W, výška: 472 m

Aktuální stav počasí

Zpráva byla vytvořena před 16 minutami, v 22:15 UTC
Jihojihozápadní vítr 10 kt s nárazy do 15 kt
Teplota 13°C
Vlhkost vzduchu 44%
Tlak 1024 hPa
Viditelnost: 16.1 km
Jasno

METAR: KRUG 172215Z AUTO 20010G15KT 10SM CLR 13/01 A3023 RMK AO2

Čas: 17:31 (22:31 UTC)


TAF: chybějící

Stav a předpovědi počasí z více než 4 000 letišť (zprávy METAR a TAF).

Červené a žluté tečky na mapě představují dostupné meteorologické stanice.

Když kurzor umístíte na tečku, zobrazí se název stanice.

Pak kliknutím zobrazíte stav a předpověď počasí.

Chcete-li změnit mapu, kliknutím na zelené tlačítko se znaménkem +mapu přiblížíte, kliknutím na zelené tlačítko se znaménkem – mapu oddálíte a kliknutím na zelené šipky přejdete na sousední mapy.


METAR-TAF: